Wetbulb
58.40 58.21 58.72 58.95 59.10 59.39 59.47 59.69 59.88 60.06 60.04 60.10 60.48 60.99 61.60 61.36 60.71 56.72 51.51 58.92 61.20 76.48 75.85 72.74 71.03 69.45 70.29 66.71 68.97 66.37 55.39 52.07 54.18 55.85 57.59 62.92 61.04 63.61 64.90 62.53 63.70 64.04 64.53 65.93 69.01
58.43 58.51 58.46 58.52 58.73 58.85 59.12 59.17 59.49 59.49 59.49 59.73 60.02 60.58 61.62 61.40 55.65 52.05 62.35 73.02 75.73 77.61 65.02 60.35 57.56 62.97 60.16 64.32 65.50 60.60 54.98 56.19 60.09 60.07 59.29 62.37 61.91 62.15 61.47 61.05 61.45 63.22 65.74 67.52 68.30
57.43 57.16 57.42 58.11 58.24 58.41 58.71 58.75 59.01 59.08 59.20 59.52 59.94 60.65 61.82 61.35 48.26 46.37 72.17 72.96 77.24 76.94 57.68 56.97 56.98 58.59 54.76 56.75 61.73 61.07 57.20 59.73 61.37 62.70 62.48 62.14 62.08 64.89 60.02 57.81 60.61 61.61 63.98 66.53 67.19
56.71 56.88 56.66 57.70 57.83 58.07 58.21 58.41 58.53 58.48 58.73 59.21 59.85 60.81 61.98 54.54 41.41 52.10 75.98 75.22 77.78 72.98 56.57 56.28 57.04 56.52 54.13 54.43 58.33 55.48 59.53 60.63 63.92 65.08 62.76 62.09 63.53 62.26 61.82 61.95 63.63 65.07 66.32 66.69 66.61
56.66 56.38 56.64 56.98 57.21 57.60 57.67 57.79 57.76 57.99 58.51 59.05 59.99 61.16 55.90 44.69 48.63 56.26 73.70 74.97 70.12 58.45 55.13 55.00 56.28 55.30 53.39 54.73 57.31 55.87 57.29 61.98 63.61 63.82 62.66 64.14 62.86 62.40 62.96 62.77 65.75 66.19 67.12 66.16 66.50
56.96 56.87 56.71 56.91 57.06 57.21 57.36 57.62 57.34 57.70 58.25 59.16 60.26 61.40 52.42 42.22 50.35 58.59 57.26 60.80 56.95 54.80 54.18 54.91 57.20 57.74 55.00 55.40 55.62 57.45 58.18 61.84 62.83 62.80 62.73 61.71 61.32 63.19 61.66 63.45 65.63 65.80 65.62 66.25 66.39
56.75 56.94 56.92 56.94 57.01 56.93 57.00 57.02 57.01 57.19 58.14 59.40 60.56 61.29 52.37 47.78 54.98 57.39 54.73 53.81 54.77 55.05 53.50 55.77 57.65 55.83 56.01 54.23 58.58 58.26 56.81 58.93 60.33 61.39 60.47 61.47 58.97 59.99 61.67 62.53 63.18 65.15 65.61 66.16 66.49
56.80 56.80 56.67 56.94 56.79 56.66 56.75 56.64 56.59 57.79 58.96 60.19 61.50 56.48 47.57 54.50 56.12 58.91 54.15 51.71 52.61 52.37 53.23 54.41 58.45 55.17 54.51 55.87 56.32 55.97 55.39 51.58 58.26 60.43 60.25 58.30 52.33 59.88 61.17 60.79 60.12 61.24 64.18 65.78 65.98
56.86 56.58 56.54 56.65 56.70 56.33 56.02 55.91 57.30 59.40 60.40 62.11 53.36 49.56 47.36 59.60 54.46 55.00 53.80 52.39 51.96 48.33 49.56 57.57 55.53 52.14 53.68 51.11 50.12 51.39 49.02 51.55 56.10 60.57 59.91 56.96 52.95 59.84 61.06 60.31 59.37 60.29 60.96 62.62 63.86
56.75 56.62 56.42 56.40 56.25 55.56 54.99 55.71 56.63 58.35 60.06 61.07 60.07 47.11 50.65 50.11 54.79 54.11 53.00 52.61 49.34 47.96 51.15 52.31 51.57 49.66 48.71 48.90 44.91 46.15 47.57 50.40 50.96 56.37 59.03 56.15 54.39 57.72 61.07 60.57 59.80 60.16 60.89 61.33 62.01
56.67 56.26 56.15 55.96 55.52 54.55 52.67 51.58 50.75 48.94 53.18 50.14 45.16 45.97 50.66 54.21 54.86 52.09 50.34 49.32 46.89 46.38 44.65 47.22 47.80 46.10 49.53 50.99 51.83 50.22 48.45 48.64 51.85 57.93 56.51 55.07 55.22 56.47 60.28 60.82 60.05 60.07 61.35 61.52 62.80
56.14 55.97 55.72 55.46 54.91 54.21 49.92 50.99 51.61 51.04 47.12 53.40 54.41 52.50 54.08 53.57 52.23 53.23 48.30 46.25 44.05 41.36 43.09 44.53 43.80 50.06 52.26 52.34 50.80 48.75 47.37 46.87 52.33 57.34 55.62 53.89 54.05 56.76 57.64 60.35 61.12 60.90 60.95 61.74 62.97
55.99 55.58 55.32 54.73 53.96 50.86 47.93 50.12 53.06 51.65 45.08 50.09 52.30 52.57 53.48 54.73 51.78 52.26 47.42 44.00 42.79 40.66 41.46 41.73 45.81 50.78 51.44 49.84 49.04 45.57 44.98 46.95 49.46 53.99 55.43 53.53 51.27 53.61 58.46 59.62 60.72 62.07 62.62 63.00 63.04
55.99 55.50 54.71 53.06 49.03 47.69 49.77 52.06 51.77 51.31 43.28 47.84 47.94 51.45 53.83 53.37 49.65 56.19 49.55 47.83 43.45 41.96 43.66 42.54 46.45 49.44 47.27 47.81 48.47 43.67 50.24 50.59 50.38 49.91 44.89 52.30 43.88 48.87 52.82 55.52 58.24 59.77 61.37 62.09 63.00
55.77 55.07 53.48 52.58 44.89 47.79 51.47 50.14 50.33 51.24 36.40 51.39 48.72 53.41 50.81 49.58 46.40 47.59 50.77 47.77 43.90 43.73 43.70 43.81 44.81 45.41 44.81 47.35 50.17 47.74 50.56 48.66 48.32 47.01 46.77 47.45 44.96 48.28 51.78 52.80 55.19 58.63 61.34 62.67 63.69
55.05 54.38 53.15 49.02 45.37 48.96 50.09 49.79 50.90 43.29 38.34 47.97 49.38 47.62 47.63 46.45 47.97 48.52 47.76 47.88 46.75 44.04 41.91 44.33 45.69 46.36 47.17 48.10 49.86 48.16 44.00 41.71 39.76 41.12 39.09 43.44 43.95 43.75 45.67 51.87 55.31 58.26 61.15 62.78 63.44
53.67 52.78 51.85 51.59 45.38 48.83 49.61 50.49 41.44 38.87 48.86 45.48 43.51 45.46 43.84 43.40 45.74 47.00 44.70 42.04 40.93 38.44 38.45 42.04 42.64 43.88 45.59 41.78 42.69 42.00 39.02 34.60 34.91 34.74 35.93 36.21 40.79 44.31 47.25 53.30 55.39 57.58 60.10 61.89 62.63
52.14 50.86 50.45 50.92 48.65 48.53 49.84 46.91 37.78 47.08 46.19 47.35 45.10 44.43 43.55 44.12 42.32 42.67 42.33 41.19 40.13 39.95 36.43 37.58 38.18 42.95 45.25 44.69 41.96 38.44 38.94 34.82 31.15 31.74 35.55 34.72 38.35 43.71 53.03 55.97 57.61 59.01 60.26 61.86 62.49
51.00 47.70 47.45 49.77 51.39 48.33 48.57 39.96 42.66 45.57 48.95 45.53 43.05 42.46 40.02 43.73 42.79 41.71 40.13 40.84 42.50 42.12 38.54 37.26 38.15 44.01 44.42 43.48 44.60 39.22 37.41 39.44 33.96 29.48 32.96 35.81 41.34 48.38 54.64 55.82 57.90 57.53 58.75 59.69 61.04
46.43 48.87 51.84 51.06 51.14 49.01 44.67 39.85 44.07 49.03 49.45 46.06 40.54 42.47 39.70 40.99 41.41 40.18 40.75 43.23 43.55 43.77 42.32 39.28 36.80 40.62 43.92 43.89 43.05 41.56 42.01 37.39 34.26 31.92 31.02 35.48 37.35 42.37 49.65 53.46 55.85 57.09 58.40 59.22 60.49
48.81 49.75 52.92 50.09 48.29 46.97 40.11 39.71 46.04 50.83 50.71 46.14 44.43 43.82 41.94 44.41 42.79 39.75 42.35 44.10 44.64 42.45 41.89 39.51 39.80 39.96 41.15 41.17 40.55 40.07 37.75 35.42 35.64 34.02 32.79 32.37 37.95 46.02 50.30 53.17 54.93 57.09 58.98 59.23 60.46
43.72 47.68 53.60 49.18 43.92 38.82 40.70 44.05 48.21 50.21 50.81 48.37 46.48 45.93 45.38 46.13 43.62 39.76 41.64 42.97 45.94 43.48 42.48 41.73 37.36 37.00 43.38 42.29 43.22 39.69 38.94 37.77 35.83 33.39 31.36 33.82 38.11 48.80 50.77 52.69 54.93 56.14 56.11 58.16 60.85
42.41 45.66 53.43 48.95 39.52 39.07 42.66 46.30 49.36 50.47 49.82 48.78 47.63 48.29 48.03 45.05 42.89 41.85 43.39 49.96 46.70 44.87 44.13 43.15 38.09 35.70 39.45 43.40 44.80 40.40 38.55 35.58 35.13 34.11 33.56 35.56 38.95 49.14 51.58 53.03 54.70 54.79 55.98 57.31 60.12
46.28 47.59 47.55 45.60 41.61 41.57 41.03 43.69 47.08 52.17 50.79 50.68 49.52 49.36 47.17 47.98 48.28 48.07 49.54 51.56 51.55 50.36 58.94 49.99 37.36 38.79 37.95 42.05 43.72 43.38 42.49 39.15 38.77 36.43 34.73 37.18 41.27 48.12 53.71 53.29 53.31 55.20 57.24 57.54 60.03
47.85 45.76 45.72 43.26 43.93 44.21 44.55 45.17 46.97 47.16 49.97 48.52 47.60 49.31 47.35 46.76 47.66 48.85 50.54 50.72 52.68 55.60 46.59 44.40 40.33 41.55 41.37 45.15 46.99 46.51 49.15 44.18 43.79 40.49 41.71 44.83 45.25 51.64 54.90 54.29 52.55 56.28 59.15 60.94 60.93
44.76 44.93 46.06 43.41 45.10 44.26 42.66 43.66 46.40 48.98 48.31 48.23 49.01 52.18 50.03 48.93 49.38 47.43 49.28 49.75 48.20 49.49 44.16 44.04 41.20 43.70 43.27 47.70 48.15 48.32 50.82 52.87 52.50 51.59 51.56 49.93 50.51 55.87 57.46 60.56 61.43 62.25 63.17 63.15 64.02
43.39 46.60 46.03 42.43 44.16 43.33 43.62 45.30 47.76 49.01 51.33 53.15 53.82 51.52 50.20 51.19 53.31 52.39 52.84 50.77 49.78 49.04 46.38 45.21 43.61 41.32 40.20 44.38 45.10 43.58 47.83 50.00 51.80 52.73 52.37 47.18 52.67 56.75 58.16 60.93 61.92 62.27 61.00 62.65 64.24
MSLP
1015.60 1015.32 1014.96 1014.62 1014.33 1014.02 1013.62 1013.29 1012.91 1012.39 1011.87 1011.26 1010.64 1009.96 1009.40 1008.78 1007.98 1007.54 1006.72 1004.39 1004.18 1004.53 1004.88 1005.65 1005.86 1005.59 1005.83 1005.81 1005.76 1005.82 1006.65 1006.89 1006.54 1006.43 1005.86 1006.00 1006.47 1007.11 1007.41 1008.17 1008.76 1009.38 1010.17 1011.07 1012.48
1015.57 1015.22 1014.89 1014.52 1014.16 1013.84 1013.54 1013.21 1012.77 1012.29 1011.76 1011.19 1010.62 1010.03 1009.56 1008.97 1008.32 1006.82 1004.34 1003.92 1003.81 1004.42 1005.09 1005.34 1005.28 1005.30 1005.85 1005.70 1005.56 1005.79 1006.26 1005.91 1005.25 1005.22 1005.32 1005.78 1006.16 1006.84 1007.69 1008.37 1009.32 1010.07 1010.83 1011.69 1012.66
1015.54 1015.19 1014.83 1014.40 1014.02 1013.62 1013.27 1013.02 1012.61 1012.09 1011.66 1011.21 1010.57 1010.06 1009.54 1009.25 1008.27 1005.25 1003.98 1003.91 1003.82 1004.23 1004.57 1004.78 1004.90 1005.05 1005.38 1005.24 1005.24 1005.30 1005.35 1004.73 1004.28 1004.49 1004.79 1005.52 1006.30 1006.62 1007.48 1008.57 1009.02 1010.13 1011.22 1012.10 1012.82
1015.48 1015.07 1014.68 1014.29 1013.87 1013.39 1012.96 1012.63 1012.38 1011.95 1011.54 1011.10 1010.46 1009.92 1009.47 1009.32 1007.30 1004.54 1004.00 1003.59 1003.86 1004.33 1004.57 1004.74 1004.80 1005.09 1005.30 1005.18 1004.75 1004.77 1004.09 1003.89 1003.84 1004.22 1004.82 1005.46 1006.00 1006.81 1007.16 1007.59 1008.16 1009.44 1010.57 1011.83 1012.76
1015.30 1014.92 1014.49 1014.07 1013.67 1013.23 1012.75 1012.29 1011.90 1011.56 1011.26 1010.86 1010.39 1009.90 1009.40 1008.68 1005.92 1004.24 1004.00 1003.89 1004.37 1004.50 1004.49 1004.57 1004.72 1005.06 1005.11 1004.90 1004.57 1004.54 1003.76 1003.73 1003.50 1004.22 1004.81 1005.31 1006.10 1006.88 1007.63 1007.84 1008.60 1009.85 1010.89 1011.74 1012.35
1015.16 1014.71 1014.30 1013.83 1013.36 1012.88 1012.35 1011.91 1011.46 1011.05 1010.87 1010.54 1010.21 1009.99 1009.57 1007.69 1004.42 1004.23 1004.40 1004.43 1004.30 1004.34 1004.48 1004.44 1004.42 1004.54 1004.75 1004.71 1004.54 1004.23 1003.93 1003.85 1004.00 1004.47 1005.06 1005.60 1006.19 1006.52 1007.90 1008.43 1009.40 1010.04 1010.71 1011.37 1011.85
1014.99 1014.46 1013.95 1013.49 1013.00 1012.49 1011.97 1011.46 1010.97 1010.60 1010.39 1010.18 1010.00 1009.82 1008.96 1005.71 1004.12 1004.23 1004.23 1004.07 1004.04 1004.13 1004.32 1004.23 1004.11 1004.43 1004.74 1004.74 1004.30 1004.27 1004.40 1004.32 1004.58 1004.97 1005.35 1005.57 1006.55 1007.05 1007.46 1008.16 1009.48 1010.41 1010.72 1010.89 1011.23
1014.79 1014.30 1013.72 1013.10 1012.54 1012.03 1011.51 1010.95 1010.49 1009.92 1009.55 1009.54 1009.64 1009.56 1007.57 1004.54 1004.18 1004.04 1003.98 1003.93 1003.94 1004.05 1004.09 1004.00 1004.03 1004.38 1004.78 1004.71 1004.67 1004.90 1005.26 1005.52 1005.19 1005.12 1005.11 1005.69 1006.24 1007.11 1007.48 1007.85 1009.04 1009.83 1010.49 1010.85 1010.98
1014.59 1014.11 1013.54 1012.90 1012.22 1011.64 1011.01 1010.34 1009.74 1009.29 1009.13 1009.20 1009.48 1009.00 1006.26 1004.30 1004.15 1003.50 1003.50 1003.65 1003.79 1003.87 1003.87 1003.91 1004.24 1005.02 1005.28 1005.57 1005.84 1006.45 1006.47 1006.04 1005.45 1005.07 1005.40 1005.98 1006.51 1007.36 1007.64 1008.16 1008.68 1009.15 1010.04 1010.64 1010.98
1014.30 1013.75 1013.18 1012.54 1011.89 1011.25 1010.44 1009.61 1009.25 1009.27 1009.25 1009.19 1008.85 1008.57 1005.64 1004.78 1004.01 1003.56 1003.48 1003.53 1003.72 1003.95 1004.20 1004.50 1005.19 1005.70 1006.38 1006.60 1007.06 1007.18 1007.01 1006.52 1006.08 1005.45 1005.42 1006.19 1006.54 1007.25 1007.55 1007.77 1007.89 1008.69 1009.50 1010.11 1010.48
1014.12 1013.48 1012.84 1012.18 1011.58 1010.96 1010.21 1009.18 1009.49 1009.41 1008.81 1007.80 1007.39 1006.82 1005.57 1004.62 1004.02 1003.58 1003.46 1003.63 1003.94 1004.49 1005.03 1005.44 1006.18 1006.31 1006.50 1006.58 1006.57 1006.87 1007.19 1006.93 1005.91 1005.58 1005.79 1006.17 1006.38 1006.36 1006.65 1007.46 1008.02 1008.31 1009.00 1009.15 1009.41
1013.87 1013.21 1012.56 1011.86 1011.24 1010.68 1010.45 1009.82 1009.50 1009.48 1008.53 1006.74 1006.40 1006.04 1005.30 1004.83 1004.59 1003.70 1003.45 1004.01 1004.47 1005.21 1005.55 1006.17 1006.33 1006.12 1006.13 1006.42 1006.61 1006.94 1007.12 1007.06 1006.10 1005.65 1005.94 1006.47 1006.47 1006.34 1006.61 1006.59 1006.82 1007.43 1008.18 1008.47 1008.75
1013.56 1012.99 1012.23 1011.49 1010.90 1010.65 1010.43 1009.34 1008.91 1008.96 1008.75 1006.32 1005.58 1005.15 1004.58 1004.68 1004.20 1003.58 1003.50 1004.05 1004.78 1005.56 1005.94 1006.29 1005.94 1005.72 1005.97 1006.38 1006.63 1007.11 1007.29 1007.32 1007.21 1006.40 1006.04 1006.52 1006.60 1006.47 1006.54 1006.49 1006.73 1007.09 1007.23 1007.54 1007.72
1013.28 1012.75 1012.15 1011.29 1011.01 1010.93 1009.81 1008.81 1008.75 1008.70 1008.25 1005.94 1004.86 1003.74 1004.01 1003.91 1003.72 1003.16 1003.24 1003.75 1004.73 1005.39 1006.14 1006.08 1005.52 1005.55 1005.78 1005.96 1006.39 1006.95 1006.63 1007.09 1007.62 1007.84 1007.72 1007.35 1007.80 1006.80 1006.66 1006.53 1006.45 1006.65 1006.63 1006.39 1006.82
1012.97 1012.56 1012.18 1011.99 1011.72 1010.73 1009.08 1008.65 1008.29 1008.39 1007.10 1004.69 1003.86 1003.10 1003.43 1003.62 1003.44 1003.15 1003.08 1003.40 1004.56 1005.38 1006.01 1005.73 1005.40 1005.41 1005.57 1005.70 1006.01 1006.69 1006.84 1007.51 1007.93 1008.49 1008.85 1008.69 1008.95 1007.19 1006.92 1006.19 1005.31 1005.65 1005.22 1005.32 1005.81
1012.51 1012.25 1011.99 1011.95 1011.72 1009.37 1008.65 1008.33 1008.09 1008.13 1005.76 1003.93 1003.24 1003.23 1003.51 1003.40 1003.31 1003.16 1003.26 1003.45 1004.35 1005.20 1005.69 1005.52 1005.15 1004.94 1004.79 1005.02 1005.51 1006.21 1007.53 1008.33 1009.04 1009.75 1010.48 1009.21 1009.42 1007.32 1006.99 1006.03 1005.20 1004.97 1004.79 1004.92 1005.51
1011.82 1011.59 1011.75 1011.34 1010.28 1009.20 1008.81 1008.33 1008.67 1007.02 1004.82 1003.80 1003.28 1003.15 1003.32 1003.56 1003.54 1003.49 1003.76 1004.30 1004.91 1005.77 1006.18 1005.52 1004.98 1004.39 1004.30 1005.05 1005.81 1006.70 1008.19 1009.73 1011.06 1011.50 1010.94 1009.83 1009.59 1007.17 1005.85 1005.24 1004.64 1004.55 1004.28 1004.70 1005.24
1011.15 1010.55 1010.43 1010.08 1009.58 1009.29 1008.97 1008.93 1008.13 1005.89 1004.60 1003.50 1003.26 1003.32 1003.61 1003.71 1003.77 1003.89 1004.30 1005.09 1005.32 1005.70 1006.46 1006.10 1005.16 1004.30 1004.03 1004.48 1005.40 1006.85 1008.13 1009.80 1011.37 1012.34 1011.20 1010.34 1009.06 1006.44 1005.54 1004.72 1004.22 1003.84 1004.18 1004.59 1004.92
1010.66 1010.40 1010.36 1009.22 1009.25 1009.59 1009.27 1009.25 1007.34 1005.73 1004.47 1003.66 1003.29 1003.53 1003.78 1003.63 1003.78 1004.05 1004.57 1005.01 1005.13 1005.34 1005.93 1006.18 1005.22 1003.99 1003.75 1003.99 1004.67 1007.00 1008.25 1009.07 1010.87 1012.29 1011.89 1010.29 1008.38 1006.03 1005.36 1004.95 1004.48 1004.28 1004.53 1004.40 1004.38
1011.21 1010.58 1009.84 1009.12 1009.14 1009.27 1009.29 1008.57 1007.01 1005.47 1004.28 1003.55 1003.22 1003.24 1003.63 1003.68 1004.00 1004.19 1004.51 1004.14 1004.54 1004.74 1004.83 1005.80 1005.59 1004.42 1004.06 1004.28 1005.16 1005.74 1007.34 1009.16 1010.81 1012.17 1012.20 1010.61 1009.05 1007.34 1005.60 1005.04 1004.71 1004.40 1004.39 1004.20 1004.53
1011.17 1010.62 1009.84 1009.32 1009.49 1009.43 1009.63 1008.60 1006.83 1004.92 1004.20 1003.40 1002.97 1003.05 1003.34 1003.59 1003.91 1004.23 1004.05 1003.60 1003.78 1004.63 1004.82 1005.49 1005.82 1005.23 1004.62 1004.47 1005.17 1006.34 1007.32 1009.15 1010.58 1011.52 1011.79 1010.96 1008.95 1006.11 1005.41 1004.78 1004.51 1004.03 1004.07 1004.21 1004.51
1011.74 1011.05 1009.85 1009.68 1009.97 1010.74 1009.80 1008.38 1006.68 1005.02 1003.74 1003.06 1002.68 1002.66 1002.98 1003.45 1003.81 1004.08 1003.75 1003.27 1003.10 1003.80 1004.84 1005.30 1006.11 1005.97 1005.06 1004.64 1004.92 1005.42 1006.52 1008.03 1010.23 1011.67 1011.73 1010.66 1008.09 1006.27 1005.73 1005.47 1004.84 1004.19 1004.51 1004.19 1004.60
1012.93 1011.80 1009.93 1009.74 1010.48 1010.71 1009.46 1008.10 1006.75 1005.21 1004.04 1003.10 1002.69 1002.60 1002.82 1003.27 1003.68 1003.68 1003.39 1002.69 1002.93 1003.41 1004.02 1004.94 1005.97 1006.39 1005.65 1005.33 1005.20 1005.51 1006.40 1007.62 1008.79 1009.96 1010.92 1010.46 1008.01 1006.19 1005.78 1005.08 1004.82 1004.78 1004.63 1004.62 1004.72
1013.36 1012.38 1011.08 1010.55 1010.85 1010.49 1009.77 1008.46 1006.86 1005.17 1004.37 1003.45 1002.92 1002.64 1003.01 1003.46 1003.65 1003.73 1003.35 1003.00 1002.95 1003.40 1003.69 1004.50 1006.50 1006.54 1006.39 1005.90 1005.70 1005.84 1006.43 1007.31 1008.03 1009.41 1010.20 1009.55 1008.30 1006.98 1006.43 1006.07 1005.37 1004.41 1003.99 1004.74 1004.81
1013.44 1012.94 1012.16 1011.57 1011.22 1010.59 1009.81 1008.71 1007.41 1005.94 1004.60 1003.73 1003.35 1003.11 1003.21 1003.69 1003.82 1004.02 1003.54 1003.22 1003.18 1003.57 1004.29 1004.89 1006.59 1006.63 1006.30 1006.01 1005.87 1005.85 1006.11 1006.68 1007.43 1008.10 1008.56 1008.38 1008.15 1007.56 1007.41 1006.83 1006.17 1005.58 1004.91 1004.46 1004.72
1013.74 1013.27 1012.39 1011.82 1011.26 1010.53 1009.87 1008.80 1007.73 1006.47 1005.46 1004.23 1003.75 1003.74 1003.77 1003.91 1004.08 1004.16 1003.98 1003.86 1003.98 1004.04 1004.73 1005.58 1007.14 1007.12 1007.03 1006.40 1006.13 1006.16 1006.34 1006.60 1007.22 1007.81 1007.92 1008.02 1007.72 1007.48 1007.15 1006.87 1006.67 1006.14 1005.43 1005.30 1004.90
1013.70 1013.22 1012.82 1012.23 1011.51 1010.74 1010.01 1009.10 1007.98 1007.16 1005.43 1004.78 1004.29 1004.08 1004.46 1004.30 1004.07 1003.92 1004.07 1004.14 1004.29 1004.68 1005.54 1006.35 1007.24 1008.36 1008.14 1007.33 1006.85 1006.94 1006.76 1006.92 1007.21 1007.44 1007.75 1007.98 1007.76 1007.61 1007.29 1006.87 1006.73 1006.31 1005.92 1005.77 1005.56
Wind_Speed
15 16 17 16 16 16 17 16 16 17 17 18 19 19 19 21 17 3 5 9 6 12 5 5 1 2 3 2 2 2 5 1 4 5 4 7 5 3 4 10 1 2 6 11 17
16 16 16 17 17 17 16 16 16 16 17 18 19 19 18 20 4 3 12 5 6 15 6 4 1 3 2 2 1 3 4 7 5 5 5 11 6 9 5 6 4 11 15 19 17
16 17 17 17 18 18 17 16 16 17 17 17 18 18 16 11 5 6 1 9 11 13 1 3 2 0 2 2 3 3 4 5 3 5 6 10 6 4 10 2 6 15 17 18 16
16 17 17 17 18 18 19 18 17 17 16 16 18 17 17 1 3 2 1 11 13 7 2 4 1 2 1 3 2 2 5 5 2 6 5 9 10 5 6 5 13 20 22 17 16
17 16 17 18 18 18 19 19 19 17 16 16 15 14 4 3 10 3 6 7 7 6 4 3 1 3 1 3 5 3 4 4 6 8 7 7 5 5 2 9 17 18 19 17 15
17 17 18 18 19 19 19 19 20 19 16 15 13 10 1 3 1 6 5 4 3 4 4 4 4 3 1 2 2 4 1 5 7 6 3 3 4 6 4 13 16 18 18 16 16
17 18 19 19 20 20 20 20 21 20 17 13 9 3 1 14 1 7 3 5 4 4 4 3 3 3 2 5 2 3 6 6 5 3 2 3 1 0 9 16 17 15 15 16 16
18 18 20 21 21 21 21 21 22 20 15 9 5 2 8 5 3 9 3 1 3 2 2 4 4 3 2 3 6 7 6 5 2 4 4 4 7 4 11 17 17 16 15 14 15
17 18 20 20 20 21 21 23 21 7 3 7 3 2 10 7 2 3 4 4 5 2 2 3 3 3 5 4 6 8 3 2 1 3 1 1 3 5 7 11 13 15 15 14 13
18 18 19 20 20 21 22 22 8 5 2 3 3 2 5 3 5 3 0 2 2 1 4 4 5 4 4 5 3 2 3 4 5 3 3 2 4 7 12 13 16 13 10 10 14
18 19 20 21 21 20 13 3 5 2 1 7 4 3 5 8 2 0 3 5 3 7 4 3 5 5 7 6 4 4 4 3 5 2 1 7 6 11 16 13 13 12 12 11 13
18 19 20 21 21 18 1 5 6 3 8 7 6 6 4 1 3 3 4 6 4 3 2 6 4 8 5 7 5 2 1 4 8 4 2 5 6 4 11 19 20 18 13 15 11
19 19 20 21 24 1 1 3 4 3 1 8 5 4 5 7 5 5 6 5 6 4 3 7 5 5 5 5 4 3 4 4 6 7 3 5 9 4 4 4 6 11 14 15 17
19 19 18 27 2 4 3 1 5 4 5 6 3 6 4 4 2 5 4 6 2 9 8 4 2 6 3 3 6 2 6 6 3 3 4 3 7 6 4 9 4 10 14 18 17
19 17 18 10 5 2 2 6 4 3 3 2 2 2 0 7 2 1 2 6 7 5 6 8 6 5 4 6 6 10 6 7 4 4 3 3 4 11 4 9 5 12 18 17 18
20 16 16 1 1 7 7 7 3 6 0 1 4 5 4 2 2 1 3 5 4 5 2 6 2 5 9 4 8 2 5 6 5 4 2 5 5 9 6 7 9 3 10 14 12
21 16 5 2 4 5 6 4 6 3 3 2 3 4 2 3 1 1 4 3 5 5 3 5 3 2 4 4 2 7 8 4 4 4 7 2 3 12 5 9 12 10 13 8 8
24 16 6 5 3 5 3 6 2 1 3 2 3 3 4 4 2 2 5 4 1 5 4 5 6 6 6 8 8 4 10 8 6 5 6 3 5 9 7 10 8 7 6 8 10
20 1 1 4 8 3 6 3 6 3 3 2 3 5 2 1 3 2 5 7 8 8 7 5 6 4 2 3 8 4 3 5 9 4 3 3 9 8 4 4 5 4 6 10 8
3 4 3 2 6 3 6 5 4 4 4 1 2 3 5 3 4 4 5 4 7 11 4 5 2 2 2 4 5 6 7 4 3 3 2 6 6 7 5 6 8 8 8 9 4
2 4 5 3 0 6 3 6 5 7 4 2 1 3 4 3 5 5 7 4 6 6 4 7 4 5 3 3 8 1 1 7 7 4 7 1 8 7 7 8 10 12 8 4 5
3 3 3 2 5 1 1 3 5 5 2 3 2 2 3 4 4 4 7 4 7 8 10 5 6 2 3 3 1 2 5 7 7 4 1 3 9 6 8 7 8 9 5 5 7
3 2 3 3 3 3 6 5 3 4 4 4 0 2 2 2 1 5 4 4 8 10 10 8 0 3 9 7 3 2 2 6 6 4 5 6 8 5 8 9 5 6 6 5 3
1 2 4 4 1 1 3 5 6 4 5 4 2 4 2 5 4 3 4 3 3 3 9 9 4 7 7 7 1 4 2 4 5 5 6 7 6 9 12 9 11 12 9 5 3
2 1 2 1 2 2 1 2 4 5 3 3 2 2 3 2 3 6 5 7 5 2 5 4 4 0 1 3 2 1 3 7 3 5 4 3 6 6 7 8 8 9 10 13 8
1 2 4 1 2 0 2 0 3 6 2 4 5 2 3 4 3 1 2 3 2 5 4 3 2 1 4 6 3 6 5 7 5 3 4 3 2 2 5 4 6 8 12 13 13
2 2 3 3 2 3 2 3 4 5 4 2 5 7 5 2 4 3 1 0 1 0 3 4 6 4 2 4 4 4 2 2 1 2 1 2 2 4 4 4 4 7 9 8 10
Wind_Direction
342 339 338 338 337 339 338 337 334 331 329 327 325 324 327 332 322 148 218 227 188 141 97 118 134 260 123 276 232 146 55 190 233 170 208 149 121 126 98 133 135 134 121 130 135
339 339 337 336 335 335 335 333 331 328 326 325 322 323 326 336 324 256 247 198 183 142 117 158 24 160 64 219 224 93 110 228 200 198 175 167 133 154 111 148 65 80 98 123 136
340 337 335 334 332 331 330 329 327 324 324 321 318 322 324 333 335 257 241 204 177 167 122 144 139 201 359 204 187 147 220 218 251 192 137 153 134 151 123 204 173 148 141 144 153
337 334 332 331 329 327 326 324 322 319 319 318 317 322 322 326 212 67 308 211 175 164 167 120 46 55 44 335 296 293 288 183 147 143 122 152 140 136 166 201 140 154 151 151 164
340 335 330 328 326 323 321 318 318 316 317 315 315 324 333 349 252 11 68 120 141 163 166 151 116 151 335 308 321 204 322 59 143 139 130 132 141 174 205 100 128 139 147 165 172
335 330 328 326 323 321 318 314 313 313 313 310 310 319 302 264 230 86 45 142 204 163 139 170 179 182 70 333 315 332 19 110 76 131 69 104 116 111 107 127 133 151 165 174 177
334 330 327 326 322 319 316 311 311 308 304 296 290 273 170 238 119 336 323 186 173 159 146 215 177 94 137 327 277 281 80 17 38 50 116 111 35 97 154 145 148 169 177 182 187
330 329 327 325 320 317 313 310 310 304 294 273 234 222 246 254 309 308 183 180 215 231 209 172 199 105 143 288 16 45 52 52 326 192 207 143 258 152 161 153 165 170 187 192 194
324 323 322 319 316 317 313 311 308 315 150 141 141 165 270 308 287 299 176 163 150 143 230 126 103 102 29 67 23 24 92 33 271 228 85 115 296 173 165 170 170 183 178 195 208
324 321 318 317 319 319 317 304 281 313 179 206 255 2 293 314 296 310 213 156 104 59 60 71 52 85 47 72 176 130 23 332 262 270 185 174 209 161 187 181 187 188 179 192 200
322 318 318 320 321 323 331 23 16 2 162 205 192 248 274 290 289 114 148 87 73 47 136 18 93 169 196 171 139 133 158 255 261 259 30 218 253 196 192 193 195 191 192 199 213
320 320 319 321 324 323 196 83 115 181 308 244 241 272 280 100 303 289 129 108 106 164 108 35 178 214 134 141 121 112 319 288 292 272 163 133 253 238 175 206 197 191 195 206 203
319 320 322 326 322 5 312 219 75 118 156 294 195 195 211 143 203 252 122 141 123 127 146 147 231 144 159 152 140 156 195 197 248 332 261 13 315 306 230 247 208 210 203 202 206
319 321 327 331 337 322 260 67 310 196 55 274 261 267 136 168 277 212 177 136 89 171 153 195 208 156 131 205 124 298 201 207 220 67 269 54 278 292 314 282 227 195 199 206 202
319 320 329 332 299 253 319 326 298 82 55 167 176 109 240 144 174 344 207 54 158 161 112 243 168 156 155 202 145 228 167 198 194 172 73 322 82 271 2 304 251 199 211 207 201
317 319 327 134 245 252 320 317 72 42 237 131 124 140 119 360 18 17 127 63 134 131 21 212 271 164 198 160 178 125 116 58 55 80 58 247 149 277 248 237 294 221 209 208 188
316 312 279 198 230 322 315 46 46 128 336 185 145 135 119 161 244 193 137 121 144 92 355 330 245 237 138 112 97 80 58 354 356 3 218 27 98 242 267 264 245 210 213 179 166
319 317 198 216 290 346 46 52 176 293 248 338 95 86 143 154 221 120 115 139 98 92 106 154 327 176 178 174 172 170 151 157 201 203 249 52 229 253 256 275 279 241 182 162 189
320 329 192 265 206 334 75 93 217 208 286 339 90 86 320 216 153 135 174 193 201 173 155 140 277 287 196 109 126 168 183 171 103 10 45 259 292 306 327 317 322 219 172 211 216
330 336 317 38 154 74 77 236 252 220 317 344 121 145 165 200 155 150 193 213 202 194 132 190 357 284 316 110 43 147 156 81 15 136 230 298 285 246 294 266 261 268 230 235 184
6 51 332 39 19 48 158 236 282 261 223 216 156 130 197 195 176 203 208 241 199 148 131 152 123 276 160 175 165 101 47 51 111 108 152 191 274 216 225 221 223 244 240 240 209
340 66 333 21 51 16 203 215 287 279 304 275 189 198 175 153 197 227 224 263 147 144 174 191 130 245 213 96 236 152 173 133 122 232 66 144 272 341 307 305 259 267 283 271 207
27 277 331 61 92 330 298 288 269 311 316 322 88 114 43 99 137 182 186 297 174 152 166 185 314 30 352 358 6 55 159 108 109 95 189 133 264 320 356 340 300 283 307 309 327
36 51 338 50 115 142 354 299 315 279 269 273 326 82 72 39 42 1 4 6 129 127 85 90 98 151 177 214 184 339 117 122 106 112 168 224 298 320 332 335 334 328 321 106 147
30 298 191 239 323 330 306 290 293 318 283 297 57 39 146 38 40 8 343 10 26 42 74 104 115 176 150 277 243 181 77 153 125 154 140 206 202 280 297 305 305 314 341 359 24
60 51 356 173 304 331 13 224 296 314 279 320 119 57 8 108 110 9 1 39 270 355 70 25 126 71 5 12 36 80 43 74 63 137 113 170 261 240 303 358 10 16 19 23 4
313 310 115 306 348 104 243 290 273 341 257 292 151 99 61 27 188 230 217 143 8 71 95 73 123 87 257 10 8 15 302 275 133 184 132 163 251 351 329 14 21 10 22 6 7